| time (UTC) | temp F | wind direction | speed knots | gust knots | rain 1hr in | rain 24hr in | rain mn in | humidity % | barometer mb |
| 20260508080002 | 47 | 294 | 0.0 | 1.7 | 0.00 | 0.74 | 0.00 | 86 | 1016.9 |
| 20260508075002 | 47 | 294 | 0.9 | 1.7 | 0.00 | 0.79 | 0.00 | 86 | 1016.8 |
| 20260508074003 | 47 | 294 | 0.0 | 0.9 | 0.00 | 0.79 | 0.00 | 86 | 1017.0 |
| 20260508073003 | 48 | 294 | 0.0 | 2.6 | 0.00 | 0.81 | 0.00 | 86 | 1016.9 |
| 20260508072002 | 48 | 294 | 0.0 | 1.7 | 0.00 | 0.88 | 0.00 | 86 | 1017.0 |
| 20260508071002 | 49 | 294 | 0.0 | 0.9 | 0.00 | 0.92 | 0.00 | 85 | 1017.0 |
| 20260508070004 | 49 | 294 | 0.0 | 0.9 | 0.00 | 0.94 | 0.00 | 85 | 1016.9 |
| 20260508045002 | 51 | 306 | 0.0 | 2.6 | 0.00 | 1.03 | 0.00 | 86 | 1017.3 |
| 20260508044002 | 50 | 306 | 0.9 | 2.6 | 0.00 | 1.04 | 0.00 | 85 | 1017.1 |
| 20260508043002 | 50 | 305 | 0.0 | 1.7 | 0.00 | 1.05 | 0.00 | 85 | 1017.1 |
| 20260508042003 | 50 | 305 | 0.9 | 1.7 | 0.00 | 1.05 | 0.00 | 85 | 1017.1 |
| 20260508041003 | 50 | 305 | 0.0 | 0.9 | 0.00 | 1.05 | 0.00 | 85 | 1016.9 |
| 20260508040003 | 51 | 305 | 0.0 | 0.9 | 0.00 | 1.05 | 0.00 | 85 | 1016.8 |
| 20260508035003 | 51 | 305 | 0.0 | 0.9 | 0.00 | 1.05 | 1.05 | 85 | 1016.9 |
| 20260508012002 | 56 | 305 | 0.0 | 0.0 | 0.00 | 1.26 | 1.05 | 83 | 1015.8 |
| 20260508011003 | 56 | 305 | 0.0 | 1.7 | 0.00 | 1.26 | 1.05 | 83 | 1015.8 |
| 20260508010003 | 57 | 305 | 0.0 | 1.7 | 0.00 | 1.26 | 1.05 | 82 | 1015.5 |
| 20260508005002 | 58 | 305 | 0.0 | 2.6 | 0.00 | 1.27 | 1.05 | 82 | 1015.4 |
| 20260508004002 | 58 | 305 | 0.9 | 1.7 | 0.00 | 1.33 | 1.05 | 81 | 1015.4 |
| 20260508002002 | 60 | 305 | 0.0 | 0.0 | 0.00 | 1.42 | 1.05 | 77 | 1015.1 |
| 20260508001002 | 60 | 305 | 0.0 | 1.7 | 0.00 | 1.43 | 1.05 | 76 | 1015.0 |
| 20260508000003 | 60 | 305 | 0.0 | 2.6 | 0.00 | 1.44 | 1.05 | 76 | 1014.9 |
| 20260507235003 | 61 | 302 | 1.7 | 7.0 | 0.00 | 1.61 | 1.05 | 75 | 1015.0 |
| 20260507234003 | 61 | 273 | 2.6 | 5.2 | 0.00 | 1.61 | 1.05 | 75 | 1014.7 |
| 20260507233003 | 61 | 340 | 1.7 | 2.6 | 0.00 | 1.61 | 1.05 | 76 | 1014.6 |
| 20260507232002 | 61 | 341 | 1.7 | 7.0 | 0.00 | 1.61 | 1.05 | 75 | 1014.6 |
| 20260507231002 | 61 | 314 | 4.3 | 10.4 | 0.00 | 1.61 | 1.05 | 74 | 1014.6 |
| 20260507230003 | 61 | 321 | 7.0 | 10.4 | 0.00 | 1.62 | 1.05 | 74 | 1014.6 |
| 20260507225003 | 62 | 291 | 4.3 | 7.8 | 0.00 | 1.62 | 1.05 | 75 | 1014.5 |
| 20260507224003 | 62 | 324 | 4.3 | 10.4 | 0.00 | 1.62 | 1.05 | 75 | 1014.4 |
| 20260507223002 | 61 | 344 | 6.1 | 12.2 | 0.00 | 1.62 | 1.05 | 75 | 1014.3 |
| 20260507202002 | 69 | 253 | 6.1 | 17.4 | 0.00 | 1.67 | 1.05 | 69 | 1013.0 |
| 20260507201003 | 69 | 310 | 7.8 | 13.9 | 0.00 | 1.67 | 1.05 | 68 | 1012.9 |
| 20260507200003 | 68 | 297 | 7.0 | 12.2 | 0.00 | 1.67 | 1.05 | 72 | 1013.1 |
| 20260507195002 | 68 | 293 | 10.4 | 17.4 | 0.00 | 1.67 | 1.05 | 71 | 1013.1 |
| 20260507194003 | 67 | 235 | 5.2 | 13.0 | 0.00 | 1.67 | 1.05 | 75 | 1013.2 |
| 20260507193003 | 68 | 335 | 4.3 | 13.0 | 0.00 | 1.67 | 1.05 | 74 | 1013.1 |
| 20260507171003 | 66 | 264 | 8.7 | 13.9 | 0.00 | 1.67 | 1.05 | 78 | 1013.7 |
| 20260507170002 | 66 | 316 | 2.6 | 10.4 | 0.00 | 1.67 | 1.05 | 80 | 1013.5 |
| 20260507165003 | 67 | 325 | 5.2 | 13.0 | 0.00 | 1.67 | 1.05 | 80 | 1013.5 |
| 20260507164002 | 67 | 309 | 4.3 | 10.4 | 0.00 | 1.67 | 1.05 | 79 | 1013.3 |
| 20260507163003 | 67 | 304 | 4.3 | 10.4 | 0.00 | 1.67 | 1.05 | 79 | 1013.2 |
| 20260507162002 | 67 | 252 | 4.3 | 8.7 | 0.00 | 1.67 | 1.05 | 81 | 1013.0 |
| 20260507161003 | 67 | 247 | 4.3 | 7.0 | 0.00 | 1.67 | 1.05 | 81 | 1013.0 |
| 20260507150003 | 64 | 243 | 4.3 | 7.0 | 0.00 | 1.72 | 1.05 | 85 | 1013.2 |
| 20260507145003 | 64 | 254 | 3.5 | 7.8 | 0.00 | 1.72 | 1.05 | 85 | 1013.1 |
| 20260507144002 | 64 | 252 | 5.2 | 13.0 | 0.00 | 1.72 | 1.05 | 85 | 1013.4 |
| 20260507143003 | 64 | 252 | 4.3 | 10.4 | 0.00 | 1.72 | 1.05 | 87 | 1013.3 |
| 20260507142002 | 63 | 298 | 5.2 | 11.3 | 0.00 | 1.75 | 1.05 | 87 | 1013.5 |
| 20260507141002 | 63 | 262 | 2.6 | 8.7 | 0.00 | 1.75 | 1.05 | 87 | 1013.7 |
| 20260507140003 | 63 | 219 | 3.5 | 7.8 | 0.00 | 1.75 | 1.05 | 87 | 1013.6 |
| 20260507110003 | 60 | 325 | 0.0 | 0.9 | 0.30 | 1.56 | 0.86 | 87 | 1011.9 |
| 20260507105003 | 60 | 325 | 0.0 | 1.7 | 0.34 | 1.56 | 0.86 | 87 | 1011.9 |
| 20260507104003 | 60 | 325 | 0.0 | 1.7 | 0.39 | 1.56 | 0.86 | 87 | 1012.4 |
| 20260507103003 | 60 | 325 | 0.9 | 1.7 | 0.41 | 1.56 | 0.86 | 87 | 1012.4 |
| 20260507102003 | 60 | 325 | 0.9 | 10.4 | 0.39 | 1.54 | 0.83 | 87 | 1012.8 |
| 20260507101002 | 60 | 302 | 6.1 | 10.4 | 0.13 | 1.27 | 0.57 | 87 | 1013.7 |
| 20260507100003 | 60 | 272 | 0.0 | 2.6 | 0.13 | 1.26 | 0.56 | 87 | 1011.6 |
| 20260507095003 | 60 | 271 | 0.0 | 0.0 | 0.10 | 1.22 | 0.52 | 87 | 1012.2 |
| 20260507094003 | 60 | 271 | 0.0 | 2.6 | 0.07 | 1.17 | 0.47 | 87 | 1012.6 |
| 20260507093002 | 60 | 271 | 0.0 | 0.0 | 0.06 | 1.15 | 0.45 | 87 | 1012.4 |
| 20260507092003 | 60 | 271 | 0.0 | 0.0 | 0.07 | 1.15 | 0.45 | 87 | 1012.5 |
| 20260507091003 | 60 | 271 | 0.0 | 0.0 | 0.10 | 1.14 | 0.44 | 87 | 1012.1 |
| 20260507090005 | 60 | 271 | 0.0 | 0.0 | 0.11 | 1.13 | 0.42 | 87 | 1012.3 |
| 20260507085003 | 60 | 271 | 0.0 | 0.0 | 0.16 | 1.13 | 0.42 | 87 | 1012.9 |
| 20260507084003 | 60 | 271 | 0.0 | 0.0 | 0.13 | 1.10 | 0.40 | 87 | 1013.0 |
| 20260507083003 | 60 | 271 | 0.0 | 0.0 | 0.15 | 1.09 | 0.39 | 87 | 1012.6 |